TimeMST,TemperatureF,Dew PointF,Humidity,Sea Level PressureIn,VisibilityMPH,Wind Direction,Wind SpeedMPH,Gust SpeedMPH,PrecipitationIn,Events,Conditions,WindDirDegrees,DateUTC
12:56 AM,41.0,28.9,62,29.73,10.0,WSW,11.5,-,N/A,,Overcast,250,2014-02-01 07:56:00
1:56 AM,39.0,28.0,65,29.75,10.0,WNW,15.0,-,N/A,,Scattered Clouds,300,2014-02-01 08:56:00
2:56 AM,35.1,27.0,72,29.77,10.0,WNW,10.4,-,N/A,,Mostly Cloudy,300,2014-02-01 09:56:00
3:56 AM,36.0,26.1,67,29.79,10.0,West,10.4,-,N/A,,Overcast,270,2014-02-01 10:56:00
4:56 AM,34.0,27.0,75,29.81,10.0,WSW,8.1,-,N/A,,Mostly Cloudy,250,2014-02-01 11:56:00
5:56 AM,35.1,25.0,67,29.83,10.0,NNW,5.8,-,N/A,,Mostly Cloudy,330,2014-02-01 12:56:00
6:56 AM,30.9,23.0,72,29.86,10.0,Calm,Calm,-,N/A,,Clear,0,2014-02-01 13:56:00
7:56 AM,27.0,21.0,78,29.89,10.0,WSW,5.8,-,N/A,,Scattered Clouds,240,2014-02-01 14:56:00
8:56 AM,33.1,23.0,66,29.88,10.0,Calm,Calm,-,N/A,,Scattered Clouds,0,2014-02-01 15:56:00
9:56 AM,39.9,24.1,53,29.89,10.0,North,4.6,-,N/A,,Clear,10,2014-02-01 16:56:00
10:56 AM,42.1,23.0,47,29.91,10.0,NW,10.4,-,0.00,Rain,Light Rain,320,2014-02-01 17:56:00
11:56 AM,42.1,21.9,45,29.88,10.0,NNW,10.4,-,0.00,,Partly Cloudy,330,2014-02-01 18:56:00
12:56 PM,45.0,21.0,39,29.85,10.0,NNW,11.5,19.6,0.00,,Mostly Cloudy,330,2014-02-01 19:56:00
1:56 PM,46.0,19.9,35,29.84,10.0,NNW,17.3,24.2,0.00,Rain,Light Rain,330,2014-02-01 20:56:00
2:56 PM,46.0,18.0,33,29.85,10.0,NW,11.5,-,0.00,Rain,Light Rain,310,2014-02-01 21:56:00
3:56 PM,46.0,18.0,33,29.86,10.0,NNW,13.8,-,0.00,,Clear,340,2014-02-01 22:56:00
4:56 PM,43.0,16.0,34,29.90,10.0,NW,10.4,-,N/A,,Mostly Cloudy,320,2014-02-01 23:56:00
5:56 PM,39.9,17.1,40,29.92,10.0,NNW,6.9,-,N/A,,Clear,330,2014-02-02 00:56:00
6:56 PM,37.0,16.0,42,29.98,10.0,NNW,6.9,-,N/A,,Partly Cloudy,340,2014-02-02 01:56:00
7:56 PM,32.0,14.0,48,30.02,10.0,NW,6.9,-,N/A,,Clear,320,2014-02-02 02:56:00
8:56 PM,27.0,12.9,56,30.04,10.0,West,4.6,-,N/A,,Clear,270,2014-02-02 03:56:00
9:56 PM,28.0,15.1,58,30.03,10.0,West,6.9,-,N/A,,Mostly Cloudy,260,2014-02-02 04:56:00
10:56 PM,24.1,14.0,65,30.04,10.0,West,5.8,-,N/A,,Partly Cloudy,270,2014-02-02 05:56:00
11:56 PM,24.1,15.1,69,30.06,10.0,West,5.8,-,N/A,,Clear,270,2014-02-02 06:56:00